{"data":{"norad_id":65037,"intl_designator":"2025-161Y","name":"STARLINK-34776","alt_names":[],"object_type":"PAYLOAD","status":"ACTIVE","operator":null,"country":"US","launch_date":"2025-07-30","launch_site_code":"AFWTR","launch_vehicle":null,"mission":null,"orbit_class":"UNKNOWN","rcs_meters":null,"size_class":null,"mass_kg":null,"dimensions":null,"purposes":["comms"],"wikipedia_slug":null,"has_3d_model":false,"image_url":null,"decayed_at":null,"tle_current":{"epoch":"2026-09-21T22:09:21.098304Z","epoch_age_seconds":102708,"freshness":"FRESH","line1":"1 65037U 25161Y   26264.92316086  .00004635  00000+0  14827-3 0  9993","line2":"2 65037  53.1580 101.3280 0001523  79.5958 280.5216 15.34390322 64291","mean_motion":15.34390322,"eccentricity":0.0001523,"inclination_deg":53.158,"raan_deg":101.328,"arg_perigee_deg":79.5958,"mean_anomaly_deg":280.5216,"bstar":0.00014827,"rev_number":6429,"period_min":93.848350015857,"perigee_km":461.69014106432,"apogee_km":463.77386976337,"semimajor_km":6840.8690054138,"source":"CELESTRAK","updated_at":"2026-09-22T09:00:50.380498Z"}}}